GEFSCGP_prec_meanprecacc_222.txt.gz
Total_Precipitation_Accumulation
1.78 2.01 1.62 0.95 0.76 0.68 0.57 0.50 0.44 0.44 0.44 0.52 0.53 0.60 0.66 0.65 0.62 0.67 0.78 0.84 0.86 0.88 0.95 1.22 1.63 1.90 2.29 2.70 2.83 2.87 2.83 3.01 3.24 3.13 2.92 2.68 2.42 2.21 1.99 1.83 1.68 1.57 1.47 1.39
1.71 1.45 0.89 0.67 0.71 0.74 0.69 0.63 0.51 0.47 0.45 0.54 0.53 0.56 0.55 0.59 0.59 0.61 0.70 0.76 0.76 0.72 0.82 1.09 1.41 1.74 1.96 2.50 2.80 2.83 2.92 3.06 3.23 3.12 3.02 2.95 2.80 2.58 2.34 2.16 1.87 1.67 1.55 1.46
1.27 0.90 0.73 0.87 0.92 0.86 0.77 0.66 0.53 0.53 0.59 0.55 0.52 0.57 0.48 0.48 0.51 0.52 0.64 0.72 0.70 0.66 0.74 0.93 1.17 1.48 1.63 1.98 2.39 2.58 2.65 2.86 3.02 3.20 3.48 3.48 3.31 2.90 2.43 2.14 1.98 1.82 1.77 1.67
1.06 0.74 0.86 1.09 1.04 0.84 0.76 0.53 0.53 0.55 0.68 0.70 0.55 0.71 0.49 0.43 0.47 0.49 0.61 0.69 0.69 0.66 0.70 0.86 1.04 1.19 1.37 1.59 1.94 2.29 2.51 2.65 2.71 2.83 3.13 3.27 3.14 2.74 2.35 2.10 2.07 2.09 2.00 1.94
1.03 0.76 0.92 1.16 0.95 0.78 0.69 0.49 0.59 0.65 0.73 0.74 0.51 0.61 0.52 0.42 0.50 0.52 0.59 0.67 0.70 0.71 0.77 0.86 0.94 0.97 1.10 1.32 1.68 1.99 2.24 2.46 2.51 2.47 2.62 2.88 3.03 2.92 2.72 2.46 2.30 2.20 2.12 1.99
0.76 0.75 0.95 1.01 0.85 0.83 0.76 0.78 0.91 0.99 1.20 1.15 0.50 0.50 0.48 0.47 0.56 0.56 0.56 0.66 0.73 0.80 0.84 0.86 0.89 0.90 0.97 1.11 1.35 1.64 1.89 2.22 2.40 2.37 2.44 2.54 2.64 2.76 2.71 2.46 2.39 2.29 2.24 2.11
1.02 0.99 0.94 1.00 1.22 1.17 1.17 1.57 1.96 1.90 1.68 0.97 0.30 0.35 0.49 0.44 0.49 0.52 0.56 0.64 0.70 0.71 0.73 0.73 0.73 0.76 0.88 1.01 1.13 1.35 1.48 1.73 2.03 2.17 2.22 2.27 2.36 2.45 2.54 2.49 2.40 2.36 2.21 2.07
1.14 1.20 0.91 0.98 1.30 1.35 1.18 1.40 1.53 1.33 0.87 0.46 0.25 0.38 0.47 0.40 0.41 0.46 0.50 0.58 0.69 0.74 0.74 0.73 0.70 0.76 0.89 0.95 1.02 1.15 1.28 1.41 1.65 1.86 1.91 1.94 2.09 2.18 2.18 2.25 2.21 2.18 2.12 2.02
0.87 0.93 0.72 0.76 0.91 1.04 1.13 1.04 0.83 1.04 0.75 0.52 0.36 0.32 0.36 0.35 0.38 0.42 0.44 0.49 0.61 0.67 0.67 0.71 0.74 0.79 0.84 0.89 0.95 1.03 1.13 1.17 1.30 1.53 1.65 1.73 1.78 1.81 1.77 1.77 1.78 1.83 1.88 1.89
0.80 0.91 0.77 0.80 1.01 1.06 0.99 0.86 0.94 1.25 1.05 0.74 0.39 0.30 0.44 0.43 0.43 0.43 0.43 0.46 0.55 0.62 0.67 0.70 0.74 0.72 0.73 0.78 0.84 0.93 0.96 0.95 1.02 1.16 1.28 1.44 1.52 1.52 1.56 1.55 1.50 1.48 1.48 1.54
0.69 0.92 0.99 0.96 1.07 0.87 0.77 0.89 0.98 1.00 0.83 0.85 0.57 0.41 0.41 0.43 0.44 0.46 0.50 0.50 0.56 0.60 0.69 0.74 0.77 0.73 0.70 0.75 0.81 0.84 0.81 0.82 0.86 0.95 1.02 1.09 1.21 1.28 1.33 1.33 1.25 1.25 1.21 1.19
0.57 0.80 0.95 0.77 0.57 0.52 0.59 0.61 0.76 1.04 0.80 0.65 0.61 0.41 0.29 0.33 0.37 0.43 0.51 0.51 0.52 0.55 0.62 0.68 0.73 0.71 0.71 0.74 0.78 0.82 0.77 0.76 0.78 0.83 0.84 0.88 0.97 1.10 1.15 1.18 1.12 1.06 1.06 1.00
0.63 0.82 0.98 0.84 0.70 0.64 0.62 0.47 0.57 0.83 1.01 0.76 0.68 0.43 0.26 0.29 0.34 0.40 0.48 0.49 0.49 0.50 0.54 0.56 0.58 0.62 0.66 0.69 0.73 0.79 0.78 0.71 0.69 0.70 0.70 0.75 0.83 0.92 0.97 0.99 1.00 0.94 0.96 0.90
0.77 0.75 0.80 0.80 0.63 0.60 0.56 0.45 0.54 0.99 1.19 0.68 0.44 0.36 0.29 0.31 0.34 0.37 0.41 0.43 0.44 0.43 0.41 0.43 0.47 0.51 0.55 0.60 0.65 0.69 0.72 0.71 0.72 0.69 0.65 0.68 0.72 0.84 0.88 0.85 0.88 0.87 0.92 0.94
0.66 0.72 0.53 0.45 0.32 0.36 0.41 0.45 0.54 0.75 0.67 0.63 0.36 0.31 0.32 0.31 0.34 0.36 0.34 0.33 0.32 0.30 0.30 0.33 0.35 0.37 0.42 0.46 0.51 0.56 0.61 0.64 0.69 0.70 0.67 0.66 0.67 0.75 0.81 0.75 0.75 0.78 0.81 0.92
0.42 0.57 0.48 0.41 0.27 0.30 0.40 0.41 0.43 0.48 0.49 0.49 0.36 0.33 0.26 0.27 0.30 0.29 0.25 0.23 0.21 0.21 0.22 0.22 0.23 0.24 0.26 0.30 0.36 0.42 0.49 0.54 0.61 0.64 0.66 0.65 0.64 0.68 0.77 0.76 0.73 0.74 0.78 0.87
0.33 0.45 0.59 0.46 0.26 0.35 0.45 0.37 0.40 0.45 0.44 0.45 0.50 0.41 0.26 0.25 0.25 0.23 0.22 0.19 0.17 0.15 0.15 0.15 0.15 0.16 0.18 0.21 0.25 0.30 0.36 0.42 0.48 0.55 0.60 0.64 0.67 0.70 0.77 0.79 0.79 0.83 0.90 0.96
0.27 0.41 0.67 0.52 0.33 0.41 0.32 0.21 0.26 0.35 0.35 0.31 0.34 0.30 0.24 0.23 0.22 0.21 0.20 0.17 0.14 0.13 0.14 0.16 0.16 0.16 0.17 0.17 0.18 0.20 0.27 0.34 0.39 0.43 0.51 0.55 0.61 0.65 0.69 0.76 0.82 0.87 0.92 0.97
0.18 0.44 0.77 0.60 0.39 0.25 0.20 0.19 0.25 0.34 0.38 0.28 0.25 0.21 0.21 0.19 0.17 0.18 0.17 0.16 0.16 0.14 0.14 0.15 0.14 0.15 0.16 0.16 0.16 0.18 0.23 0.31 0.36 0.42 0.49 0.53 0.62 0.66 0.70 0.77 0.80 0.84 0.90 0.94
0.20 0.38 0.76 0.65 0.51 0.31 0.21 0.13 0.14 0.28 0.46 0.25 0.20 0.19 0.19 0.18 0.24 0.21 0.15 0.15 0.16 0.14 0.13 0.15 0.15 0.15 0.17 0.20 0.22 0.24 0.27 0.32 0.36 0.42 0.50 0.52 0.61 0.71 0.75 0.78 0.78 0.76 0.81 0.87
0.31 0.49 0.64 0.53 0.48 0.24 0.14 0.08 0.12 0.38 0.50 0.23 0.18 0.18 0.17 0.18 0.23 0.19 0.15 0.13 0.13 0.14 0.14 0.14 0.16 0.18 0.23 0.28 0.30 0.32 0.36 0.40 0.41 0.43 0.47 0.47 0.52 0.59 0.63 0.65 0.67 0.68 0.69 0.70
0.23 0.31 0.29 0.31 0.44 0.32 0.15 0.12 0.25 0.32 0.19 0.14 0.13 0.13 0.14 0.16 0.17 0.17 0.16 0.14 0.14 0.18 0.17 0.17 0.19 0.20 0.22 0.29 0.35 0.37 0.36 0.38 0.38 0.39 0.43 0.44 0.46 0.50 0.53 0.55 0.58 0.60 0.59 0.58
0.20 0.26 0.29 0.29 0.32 0.24 0.17 0.19 0.20 0.16 0.13 0.12 0.12 0.12 0.12 0.15 0.16 0.16 0.16 0.14 0.12 0.16 0.18 0.16 0.17 0.18 0.19 0.23 0.29 0.37 0.37 0.35 0.35 0.38 0.42 0.43 0.41 0.43 0.47 0.48 0.50 0.50 0.49 0.48
0.17 0.14 0.20 0.22 0.19 0.16 0.16 0.16 0.16 0.16 0.15 0.13 0.11 0.09 0.08 0.11 0.13 0.14 0.14 0.14 0.13 0.13 0.15 0.15 0.14 0.16 0.19 0.20 0.22 0.26 0.29 0.30 0.32 0.33 0.35 0.38 0.40 0.38 0.37 0.39 0.42 0.45 0.46 0.46
0.15 0.15 0.18 0.22 0.18 0.17 0.17 0.16 0.14 0.13 0.11 0.08 0.07 0.07 0.08 0.10 0.12 0.14 0.15 0.16 0.15 0.15 0.14 0.16 0.15 0.16 0.18 0.17 0.19 0.19 0.20 0.22 0.26 0.29 0.30 0.31 0.33 0.34 0.34 0.33 0.35 0.40 0.42 0.48
0.15 0.17 0.23 0.26 0.18 0.20 0.19 0.14 0.11 0.09 0.08 0.07 0.06 0.06 0.07 0.09 0.10 0.09 0.10 0.13 0.15 0.15 0.15 0.15 0.15 0.15 0.16 0.17 0.18 0.18 0.18 0.20 0.23 0.25 0.26 0.28 0.29 0.30 0.31 0.31 0.30 0.34 0.37 0.43

GEFSCGP_prec_meanprecacc_228.txt.gz
Total_Precipitation_Accumulation
1.79 2.01 1.63 0.96 0.77 0.69 0.58 0.51 0.44 0.44 0.44 0.52 0.54 0.63 0.69 0.68 0.65 0.70 0.80 0.87 0.89 0.89 0.97 1.26 1.68 1.95 2.36 2.80 2.93 2.94 2.87 3.02 3.29 3.21 2.99 2.74 2.45 2.25 2.03 1.89 1.74 1.60 1.49 1.40
1.72 1.45 0.89 0.67 0.71 0.74 0.70 0.64 0.52 0.48 0.45 0.56 0.56 0.59 0.59 0.62 0.60 0.62 0.70 0.77 0.79 0.74 0.84 1.12 1.44 1.76 2.00 2.58 2.88 2.88 2.95 3.08 3.26 3.18 3.07 2.99 2.84 2.62 2.39 2.21 1.92 1.72 1.58 1.48
1.27 0.90 0.73 0.87 0.92 0.86 0.77 0.66 0.53 0.54 0.61 0.59 0.55 0.60 0.50 0.50 0.52 0.53 0.65 0.72 0.71 0.68 0.76 0.95 1.19 1.49 1.65 2.04 2.47 2.64 2.68 2.88 3.04 3.24 3.53 3.53 3.35 2.95 2.48 2.19 2.03 1.87 1.81 1.70
1.06 0.74 0.86 1.09 1.04 0.84 0.77 0.53 0.53 0.56 0.70 0.71 0.56 0.73 0.50 0.44 0.48 0.50 0.61 0.69 0.69 0.67 0.72 0.89 1.06 1.20 1.40 1.63 2.01 2.36 2.55 2.67 2.73 2.85 3.17 3.32 3.19 2.80 2.41 2.16 2.12 2.14 2.05 1.99
1.04 0.76 0.92 1.16 0.96 0.79 0.70 0.49 0.59 0.65 0.74 0.75 0.51 0.62 0.53 0.43 0.50 0.53 0.60 0.68 0.70 0.72 0.79 0.88 0.96 0.99 1.12 1.36 1.73 2.06 2.29 2.51 2.54 2.50 2.65 2.92 3.07 2.98 2.79 2.53 2.35 2.26 2.18 2.06
0.77 0.75 0.96 1.01 0.86 0.83 0.76 0.79 0.92 1.00 1.21 1.17 0.50 0.51 0.49 0.47 0.57 0.56 0.56 0.67 0.74 0.80 0.84 0.87 0.91 0.92 0.99 1.14 1.39 1.68 1.93 2.25 2.43 2.39 2.47 2.58 2.67 2.82 2.79 2.53 2.45 2.34 2.33 2.22
1.03 1.00 0.94 1.00 1.22 1.18 1.18 1.59 1.99 1.94 1.71 0.99 0.30 0.35 0.50 0.44 0.49 0.52 0.56 0.64 0.70 0.72 0.74 0.74 0.75 0.78 0.90 1.02 1.15 1.37 1.50 1.76 2.05 2.19 2.25 2.31 2.40 2.48 2.59 2.54 2.45 2.40 2.27 2.18
1.15 1.20 0.91 0.98 1.30 1.35 1.18 1.41 1.56 1.34 0.88 0.46 0.25 0.38 0.48 0.40 0.41 0.46 0.50 0.58 0.69 0.74 0.74 0.73 0.71 0.77 0.90 0.96 1.03 1.17 1.29 1.42 1.67 1.89 1.94 1.99 2.13 2.21 2.21 2.29 2.26 2.23 2.17 2.10
0.88 0.94 0.72 0.76 0.91 1.04 1.14 1.06 0.84 1.05 0.76 0.53 0.37 0.32 0.36 0.35 0.38 0.42 0.44 0.49 0.61 0.67 0.67 0.71 0.74 0.79 0.85 0.90 0.95 1.04 1.14 1.18 1.32 1.56 1.69 1.77 1.82 1.84 1.79 1.80 1.82 1.86 1.91 1.93
0.82 0.93 0.78 0.80 1.01 1.06 1.01 0.88 0.96 1.28 1.08 0.76 0.40 0.31 0.44 0.44 0.43 0.43 0.44 0.46 0.55 0.62 0.67 0.71 0.74 0.72 0.74 0.79 0.85 0.94 0.97 0.97 1.04 1.19 1.32 1.48 1.57 1.55 1.58 1.57 1.52 1.51 1.51 1.57
0.72 0.94 1.00 0.97 1.08 0.88 0.79 0.91 1.01 1.04 0.86 0.88 0.58 0.42 0.42 0.43 0.44 0.46 0.50 0.50 0.56 0.60 0.69 0.75 0.78 0.74 0.71 0.76 0.81 0.85 0.83 0.85 0.88 0.97 1.04 1.13 1.26 1.33 1.36 1.36 1.26 1.27 1.24 1.22
0.59 0.84 0.98 0.78 0.58 0.53 0.60 0.63 0.79 1.08 0.83 0.68 0.64 0.44 0.31 0.35 0.38 0.43 0.51 0.51 0.52 0.55 0.62 0.69 0.74 0.72 0.71 0.75 0.79 0.84 0.78 0.78 0.80 0.86 0.88 0.92 1.01 1.14 1.18 1.21 1.15 1.08 1.09 1.04
0.67 0.88 1.02 0.86 0.73 0.67 0.64 0.50 0.60 0.87 1.05 0.78 0.72 0.47 0.28 0.30 0.35 0.41 0.48 0.50 0.49 0.50 0.54 0.57 0.60 0.63 0.67 0.70 0.74 0.81 0.79 0.72 0.71 0.72 0.73 0.79 0.87 0.96 1.00 1.01 1.03 0.98 1.00 0.94
0.83 0.82 0.85 0.84 0.67 0.64 0.60 0.47 0.57 1.03 1.24 0.71 0.47 0.40 0.32 0.32 0.35 0.38 0.41 0.43 0.44 0.43 0.41 0.44 0.48 0.52 0.56 0.61 0.66 0.70 0.73 0.73 0.73 0.70 0.66 0.69 0.75 0.86 0.90 0.86 0.89 0.89 0.94 0.95
0.71 0.78 0.57 0.47 0.34 0.38 0.43 0.46 0.56 0.77 0.70 0.66 0.39 0.33 0.34 0.33 0.35 0.37 0.35 0.34 0.32 0.31 0.30 0.34 0.36 0.38 0.43 0.47 0.52 0.57 0.62 0.65 0.70 0.71 0.68 0.67 0.68 0.77 0.82 0.75 0.76 0.79 0.83 0.93
0.45 0.61 0.51 0.44 0.29 0.32 0.41 0.42 0.44 0.49 0.51 0.51 0.38 0.36 0.29 0.30 0.31 0.30 0.26 0.24 0.22 0.21 0.22 0.23 0.24 0.25 0.27 0.31 0.37 0.43 0.50 0.55 0.62 0.65 0.67 0.66 0.64 0.69 0.79 0.76 0.73 0.75 0.79 0.88
0.37 0.50 0.64 0.49 0.28 0.38 0.49 0.40 0.42 0.46 0.47 0.48 0.53 0.44 0.28 0.27 0.27 0.25 0.23 0.19 0.18 0.16 0.15 0.16 0.15 0.16 0.18 0.21 0.26 0.31 0.37 0.42 0.50 0.57 0.61 0.64 0.68 0.71 0.78 0.80 0.79 0.83 0.90 0.96
0.31 0.45 0.72 0.56 0.36 0.45 0.37 0.24 0.29 0.38 0.39 0.35 0.37 0.31 0.26 0.24 0.24 0.23 0.21 0.18 0.15 0.13 0.15 0.16 0.16 0.16 0.17 0.18 0.19 0.22 0.28 0.35 0.40 0.45 0.52 0.56 0.62 0.66 0.69 0.77 0.83 0.88 0.92 0.98
0.20 0.48 0.82 0.66 0.43 0.29 0.24 0.22 0.28 0.37 0.42 0.33 0.28 0.22 0.22 0.20 0.18 0.20 0.18 0.17 0.16 0.14 0.14 0.15 0.15 0.15 0.16 0.16 0.17 0.19 0.25 0.33 0.38 0.44 0.50 0.54 0.63 0.67 0.71 0.78 0.81 0.85 0.92 0.95
0.21 0.41 0.82 0.72 0.57 0.36 0.26 0.16 0.16 0.30 0.50 0.28 0.22 0.20 0.20 0.19 0.25 0.22 0.16 0.15 0.16 0.14 0.13 0.15 0.15 0.16 0.18 0.20 0.22 0.24 0.29 0.34 0.39 0.45 0.52 0.54 0.62 0.72 0.77 0.79 0.79 0.77 0.82 0.89
0.34 0.52 0.68 0.58 0.53 0.29 0.18 0.11 0.13 0.41 0.55 0.25 0.19 0.19 0.18 0.20 0.25 0.21 0.16 0.14 0.13 0.15 0.14 0.14 0.16 0.18 0.23 0.28 0.31 0.32 0.36 0.41 0.42 0.44 0.50 0.49 0.54 0.60 0.64 0.67 0.68 0.69 0.70 0.71
0.29 0.36 0.35 0.36 0.50 0.37 0.18 0.14 0.28 0.37 0.21 0.15 0.14 0.15 0.16 0.18 0.18 0.18 0.16 0.15 0.14 0.18 0.17 0.17 0.19 0.21 0.22 0.29 0.36 0.37 0.37 0.39 0.39 0.40 0.45 0.46 0.48 0.52 0.54 0.56 0.60 0.62 0.60 0.60
0.25 0.32 0.36 0.36 0.39 0.31 0.21 0.22 0.23 0.18 0.15 0.13 0.14 0.14 0.14 0.17 0.18 0.18 0.18 0.15 0.14 0.18 0.19 0.17 0.18 0.19 0.20 0.24 0.30 0.38 0.38 0.37 0.37 0.40 0.44 0.45 0.43 0.44 0.49 0.50 0.52 0.52 0.50 0.49
0.20 0.17 0.23 0.27 0.25 0.20 0.19 0.19 0.18 0.17 0.17 0.15 0.13 0.11 0.10 0.13 0.15 0.16 0.16 0.15 0.14 0.14 0.15 0.16 0.15 0.17 0.20 0.21 0.23 0.28 0.31 0.32 0.34 0.35 0.36 0.39 0.41 0.39 0.39 0.41 0.44 0.47 0.48 0.48
0.19 0.17 0.20 0.26 0.22 0.19 0.20 0.18 0.16 0.14 0.12 0.10 0.08 0.08 0.09 0.11 0.13 0.14 0.16 0.16 0.15 0.15 0.15 0.16 0.16 0.17 0.18 0.18 0.20 0.20 0.21 0.24 0.28 0.31 0.32 0.32 0.34 0.35 0.35 0.34 0.37 0.42 0.44 0.50
0.19 0.20 0.26 0.30 0.21 0.23 0.22 0.16 0.12 0.10 0.09 0.08 0.07 0.06 0.07 0.09 0.10 0.09 0.10 0.13 0.16 0.16 0.15 0.16 0.16 0.16 0.17 0.18 0.19 0.20 0.20 0.22 0.24 0.27 0.28 0.29 0.30 0.31 0.32 0.33 0.32 0.36 0.39 0.45

GEFSCGP_prec_meanprecacc_234.txt.gz
Total_Precipitation_Accumulation
1.80 2.02 1.63 0.96 0.77 0.70 0.58 0.52 0.45 0.45 0.44 0.52 0.54 0.63 0.70 0.69 0.66 0.71 0.81 0.88 0.90 0.90 0.98 1.28 1.70 1.98 2.39 2.81 2.95 2.98 2.91 3.08 3.36 3.29 3.05 2.78 2.48 2.27 2.05 1.91 1.77 1.63 1.51 1.42
1.73 1.46 0.89 0.67 0.72 0.75 0.71 0.65 0.52 0.48 0.46 0.56 0.56 0.60 0.60 0.63 0.62 0.64 0.72 0.79 0.81 0.76 0.87 1.16 1.47 1.79 2.02 2.59 2.90 2.91 2.99 3.12 3.29 3.23 3.11 3.02 2.87 2.63 2.40 2.23 1.94 1.74 1.60 1.49
1.28 0.90 0.73 0.87 0.92 0.87 0.78 0.68 0.54 0.55 0.62 0.59 0.57 0.61 0.52 0.50 0.52 0.53 0.66 0.73 0.72 0.70 0.81 1.01 1.22 1.51 1.67 2.05 2.49 2.68 2.72 2.91 3.07 3.27 3.56 3.54 3.37 2.98 2.51 2.21 2.05 1.89 1.83 1.72
1.07 0.75 0.86 1.09 1.05 0.84 0.77 0.53 0.54 0.56 0.71 0.73 0.58 0.74 0.51 0.44 0.48 0.50 0.62 0.69 0.70 0.68 0.75 0.92 1.09 1.22 1.42 1.66 2.04 2.41 2.60 2.70 2.75 2.87 3.19 3.33 3.20 2.82 2.44 2.19 2.15 2.17 2.07 2.01
1.05 0.76 0.93 1.17 0.96 0.79 0.70 0.49 0.59 0.66 0.76 0.76 0.52 0.64 0.53 0.43 0.50 0.53 0.60 0.68 0.71 0.72 0.80 0.90 0.99 1.03 1.15 1.39 1.76 2.09 2.34 2.54 2.57 2.52 2.67 2.94 3.08 3.00 2.82 2.56 2.38 2.28 2.20 2.07
0.77 0.76 0.96 1.02 0.86 0.84 0.77 0.79 0.92 1.01 1.24 1.20 0.51 0.52 0.49 0.48 0.57 0.56 0.57 0.67 0.74 0.81 0.85 0.89 0.93 0.96 1.02 1.17 1.42 1.71 1.97 2.29 2.46 2.42 2.49 2.59 2.68 2.83 2.81 2.56 2.47 2.36 2.35 2.23
1.04 1.00 0.95 1.00 1.22 1.18 1.19 1.61 2.03 1.98 1.75 1.01 0.30 0.35 0.50 0.44 0.49 0.52 0.56 0.65 0.70 0.72 0.74 0.75 0.76 0.81 0.93 1.06 1.19 1.41 1.53 1.80 2.09 2.22 2.27 2.32 2.40 2.49 2.61 2.57 2.48 2.42 2.29 2.19
1.17 1.21 0.91 0.99 1.31 1.36 1.19 1.43 1.58 1.37 0.90 0.47 0.25 0.39 0.48 0.40 0.41 0.46 0.50 0.59 0.69 0.75 0.75 0.75 0.73 0.78 0.93 1.00 1.07 1.21 1.33 1.46 1.71 1.92 1.96 2.00 2.15 2.23 2.23 2.31 2.29 2.25 2.20 2.13
0.92 0.95 0.73 0.76 0.92 1.05 1.15 1.07 0.86 1.08 0.78 0.54 0.37 0.33 0.36 0.35 0.38 0.42 0.44 0.49 0.61 0.68 0.68 0.73 0.76 0.81 0.87 0.93 0.99 1.09 1.18 1.22 1.35 1.59 1.72 1.79 1.84 1.85 1.81 1.83 1.86 1.90 1.95 1.97
0.87 0.96 0.79 0.81 1.03 1.07 1.02 0.90 0.98 1.32 1.11 0.78 0.41 0.31 0.45 0.44 0.43 0.43 0.44 0.46 0.55 0.63 0.68 0.72 0.76 0.74 0.76 0.81 0.89 0.98 1.01 1.01 1.08 1.22 1.34 1.51 1.59 1.57 1.60 1.59 1.56 1.55 1.55 1.60
0.76 0.99 1.02 0.98 1.10 0.91 0.81 0.94 1.05 1.08 0.89 0.91 0.60 0.43 0.43 0.44 0.45 0.46 0.51 0.51 0.56 0.61 0.70 0.76 0.79 0.75 0.72 0.77 0.83 0.89 0.86 0.89 0.93 1.01 1.07 1.16 1.29 1.37 1.40 1.39 1.30 1.31 1.27 1.25
0.63 0.88 1.01 0.80 0.60 0.55 0.62 0.66 0.83 1.14 0.88 0.70 0.65 0.45 0.32 0.36 0.40 0.45 0.53 0.53 0.53 0.56 0.62 0.69 0.75 0.73 0.72 0.76 0.80 0.85 0.81 0.81 0.84 0.90 0.92 0.96 1.05 1.18 1.23 1.26 1.19 1.12 1.13 1.08
0.73 0.95 1.08 0.90 0.77 0.70 0.68 0.53 0.64 0.92 1.09 0.82 0.74 0.50 0.31 0.33 0.37 0.43 0.50 0.51 0.50 0.51 0.54 0.58 0.61 0.65 0.68 0.71 0.75 0.82 0.80 0.75 0.74 0.76 0.78 0.84 0.92 1.01 1.06 1.06 1.09 1.03 1.05 0.98
0.91 0.90 0.90 0.87 0.69 0.67 0.64 0.50 0.59 1.08 1.30 0.75 0.50 0.43 0.36 0.36 0.38 0.41 0.44 0.46 0.46 0.45 0.42 0.45 0.49 0.54 0.58 0.63 0.69 0.72 0.74 0.74 0.75 0.73 0.70 0.74 0.80 0.93 0.98 0.93 0.95 0.95 1.01 1.01
0.74 0.82 0.60 0.49 0.35 0.40 0.46 0.49 0.58 0.81 0.74 0.71 0.42 0.36 0.38 0.37 0.38 0.39 0.36 0.36 0.34 0.32 0.32 0.36 0.38 0.40 0.44 0.50 0.54 0.60 0.65 0.67 0.72 0.73 0.71 0.71 0.72 0.81 0.87 0.81 0.81 0.83 0.87 0.98
0.47 0.64 0.54 0.47 0.32 0.34 0.44 0.44 0.46 0.52 0.53 0.54 0.41 0.39 0.33 0.34 0.34 0.32 0.28 0.25 0.23 0.22 0.23 0.25 0.25 0.27 0.29 0.33 0.39 0.46 0.52 0.57 0.65 0.67 0.69 0.69 0.68 0.73 0.82 0.80 0.77 0.78 0.83 0.91
0.39 0.52 0.66 0.51 0.31 0.42 0.54 0.44 0.46 0.50 0.50 0.51 0.57 0.47 0.32 0.31 0.30 0.28 0.25 0.21 0.19 0.17 0.16 0.17 0.17 0.17 0.19 0.23 0.28 0.33 0.39 0.45 0.52 0.60 0.64 0.67 0.71 0.75 0.81 0.82 0.81 0.85 0.92 0.98
0.34 0.48 0.77 0.59 0.39 0.51 0.44 0.31 0.35 0.42 0.43 0.40 0.42 0.36 0.30 0.30 0.28 0.26 0.24 0.20 0.16 0.14 0.16 0.17 0.17 0.17 0.17 0.18 0.20 0.23 0.30 0.37 0.42 0.48 0.56 0.60 0.65 0.69 0.72 0.79 0.84 0.88 0.93 0.99
0.23 0.53 0.88 0.70 0.47 0.34 0.28 0.26 0.35 0.43 0.47 0.38 0.34 0.28 0.27 0.23 0.21 0.23 0.20 0.19 0.18 0.16 0.15 0.16 0.16 0.16 0.17 0.17 0.17 0.20 0.26 0.34 0.39 0.46 0.54 0.58 0.66 0.70 0.73 0.80 0.83 0.86 0.92 0.96
0.23 0.44 0.87 0.76 0.61 0.41 0.31 0.20 0.20 0.34 0.55 0.33 0.26 0.25 0.25 0.22 0.28 0.27 0.20 0.17 0.18 0.15 0.14 0.15 0.15 0.16 0.18 0.21 0.23 0.25 0.30 0.36 0.40 0.46 0.54 0.57 0.65 0.76 0.80 0.82 0.81 0.79 0.83 0.90
0.36 0.55 0.71 0.61 0.56 0.32 0.23 0.15 0.15 0.46 0.62 0.30 0.23 0.23 0.22 0.24 0.29 0.25 0.19 0.16 0.14 0.15 0.15 0.15 0.17 0.19 0.23 0.28 0.31 0.33 0.37 0.42 0.44 0.47 0.52 0.52 0.56 0.63 0.67 0.70 0.71 0.72 0.72 0.73
0.32 0.39 0.38 0.39 0.53 0.42 0.22 0.18 0.34 0.45 0.27 0.20 0.18 0.18 0.19 0.22 0.21 0.21 0.19 0.17 0.15 0.19 0.18 0.17 0.20 0.21 0.23 0.30 0.36 0.38 0.38 0.40 0.41 0.43 0.48 0.50 0.52 0.55 0.57 0.59 0.63 0.65 0.64 0.62
0.28 0.37 0.41 0.41 0.47 0.39 0.29 0.30 0.31 0.25 0.21 0.18 0.18 0.17 0.17 0.20 0.20 0.20 0.19 0.16 0.15 0.19 0.20 0.18 0.19 0.20 0.21 0.25 0.31 0.38 0.39 0.38 0.39 0.42 0.47 0.48 0.48 0.48 0.52 0.53 0.55 0.55 0.53 0.52
0.23 0.19 0.26 0.31 0.30 0.26 0.25 0.23 0.22 0.22 0.21 0.19 0.16 0.14 0.13 0.16 0.17 0.17 0.17 0.16 0.15 0.14 0.16 0.17 0.16 0.18 0.22 0.23 0.24 0.29 0.32 0.33 0.36 0.38 0.39 0.43 0.45 0.42 0.42 0.44 0.48 0.50 0.50 0.50
0.22 0.19 0.22 0.29 0.25 0.22 0.22 0.21 0.19 0.17 0.14 0.12 0.10 0.10 0.11 0.13 0.15 0.16 0.17 0.18 0.16 0.16 0.16 0.17 0.17 0.18 0.20 0.20 0.21 0.21 0.22 0.25 0.29 0.33 0.34 0.35 0.36 0.38 0.37 0.36 0.40 0.45 0.47 0.53
0.23 0.24 0.30 0.34 0.25 0.26 0.25 0.17 0.13 0.11 0.10 0.09 0.08 0.08 0.09 0.11 0.12 0.10 0.11 0.14 0.17 0.17 0.16 0.17 0.17 0.17 0.18 0.19 0.22 0.22 0.21 0.23 0.26 0.28 0.30 0.31 0.32 0.33 0.34 0.34 0.33 0.37 0.41 0.48

GEFSCGP_prec_meanprecacc_240.txt.gz
Total_Precipitation_Accumulation
1.81 2.04 1.64 0.96 0.77 0.70 0.59 0.52 0.45 0.45 0.44 0.53 0.54 0.63 0.70 0.69 0.66 0.71 0.81 0.88 0.90 0.91 1.01 1.29 1.71 1.98 2.39 2.82 2.97 3.00 2.93 3.10 3.39 3.33 3.09 2.82 2.53 2.31 2.09 1.94 1.79 1.64 1.52 1.44
1.74 1.47 0.90 0.67 0.72 0.76 0.72 0.66 0.52 0.48 0.46 0.56 0.57 0.60 0.60 0.63 0.62 0.64 0.72 0.79 0.81 0.78 0.91 1.19 1.48 1.79 2.02 2.59 2.91 2.94 3.01 3.13 3.32 3.26 3.14 3.04 2.89 2.66 2.43 2.25 1.95 1.75 1.61 1.50
1.29 0.91 0.73 0.88 0.93 0.87 0.78 0.68 0.54 0.55 0.62 0.60 0.57 0.62 0.52 0.50 0.52 0.54 0.66 0.73 0.73 0.73 0.87 1.06 1.25 1.52 1.67 2.06 2.51 2.70 2.74 2.93 3.10 3.30 3.59 3.56 3.39 3.00 2.52 2.23 2.06 1.90 1.84 1.73
1.08 0.76 0.87 1.11 1.06 0.85 0.78 0.53 0.54 0.57 0.72 0.74 0.59 0.76 0.51 0.44 0.48 0.50 0.62 0.69 0.70 0.70 0.79 0.96 1.11 1.23 1.42 1.66 2.05 2.42 2.62 2.73 2.78 2.90 3.22 3.35 3.22 2.84 2.45 2.20 2.15 2.17 2.07 2.02
1.06 0.78 0.94 1.19 0.98 0.80 0.70 0.50 0.60 0.67 0.78 0.78 0.53 0.65 0.53 0.43 0.50 0.53 0.60 0.68 0.71 0.74 0.83 0.95 1.02 1.03 1.15 1.39 1.76 2.10 2.36 2.57 2.59 2.55 2.70 2.97 3.10 3.02 2.83 2.56 2.38 2.28 2.20 2.08
0.79 0.77 0.98 1.05 0.88 0.85 0.78 0.81 0.93 1.02 1.27 1.23 0.51 0.52 0.50 0.48 0.57 0.56 0.57 0.67 0.74 0.82 0.88 0.93 0.97 0.98 1.03 1.18 1.43 1.73 1.99 2.31 2.49 2.44 2.52 2.62 2.70 2.85 2.82 2.57 2.48 2.37 2.35 2.24
1.05 1.02 0.97 1.04 1.26 1.21 1.22 1.65 2.08 2.02 1.79 1.02 0.30 0.36 0.51 0.45 0.50 0.53 0.56 0.65 0.71 0.73 0.77 0.79 0.80 0.85 0.96 1.08 1.21 1.43 1.55 1.82 2.11 2.25 2.30 2.35 2.43 2.51 2.62 2.58 2.49 2.43 2.29 2.20
1.19 1.23 0.93 1.01 1.34 1.39 1.23 1.47 1.61 1.40 0.91 0.47 0.26 0.40 0.49 0.41 0.42 0.46 0.51 0.59 0.70 0.76 0.77 0.78 0.76 0.82 0.96 1.03 1.11 1.25 1.36 1.49 1.74 1.95 1.99 2.03 2.17 2.25 2.25 2.33 2.30 2.26 2.20 2.13
0.94 0.98 0.75 0.79 0.94 1.07 1.18 1.11 0.88 1.11 0.80 0.55 0.38 0.34 0.37 0.35 0.38 0.43 0.44 0.50 0.62 0.69 0.70 0.76 0.79 0.84 0.91 0.96 1.03 1.13 1.23 1.26 1.38 1.62 1.75 1.82 1.87 1.88 1.83 1.85 1.87 1.91 1.95 1.98
0.89 0.98 0.80 0.83 1.06 1.11 1.04 0.92 1.02 1.37 1.14 0.79 0.42 0.33 0.47 0.45 0.44 0.43 0.44 0.47 0.56 0.64 0.69 0.75 0.79 0.77 0.79 0.84 0.92 1.03 1.08 1.07 1.12 1.25 1.38 1.54 1.62 1.61 1.63 1.61 1.57 1.56 1.55 1.61
0.77 1.02 1.04 1.01 1.14 0.95 0.85 0.98 1.10 1.12 0.92 0.93 0.61 0.44 0.45 0.46 0.46 0.47 0.52 0.52 0.57 0.62 0.72 0.78 0.82 0.79 0.77 0.82 0.88 0.94 0.93 0.96 0.99 1.06 1.12 1.19 1.32 1.40 1.42 1.41 1.31 1.31 1.28 1.26
0.64 0.92 1.03 0.82 0.63 0.57 0.66 0.70 0.88 1.21 0.93 0.72 0.67 0.46 0.34 0.38 0.42 0.47 0.55 0.55 0.55 0.58 0.64 0.71 0.78 0.77 0.77 0.81 0.86 0.91 0.88 0.89 0.91 0.96 0.97 1.00 1.08 1.22 1.26 1.29 1.21 1.13 1.14 1.09
0.77 1.00 1.11 0.93 0.79 0.72 0.70 0.56 0.68 0.97 1.14 0.85 0.76 0.51 0.33 0.34 0.40 0.45 0.52 0.54 0.53 0.53 0.57 0.61 0.64 0.68 0.72 0.76 0.80 0.87 0.86 0.81 0.80 0.83 0.84 0.90 0.98 1.07 1.11 1.10 1.12 1.06 1.07 1.00
0.96 0.94 0.92 0.90 0.72 0.70 0.67 0.53 0.61 1.13 1.37 0.79 0.53 0.45 0.38 0.39 0.42 0.45 0.47 0.48 0.48 0.47 0.45 0.47 0.52 0.56 0.61 0.66 0.72 0.76 0.78 0.79 0.81 0.80 0.77 0.80 0.87 1.00 1.04 0.98 1.00 0.99 1.04 1.04
0.76 0.83 0.60 0.50 0.36 0.41 0.48 0.51 0.60 0.85 0.78 0.75 0.45 0.39 0.42 0.41 0.43 0.44 0.40 0.38 0.36 0.35 0.34 0.38 0.41 0.42 0.47 0.52 0.57 0.63 0.68 0.71 0.76 0.78 0.77 0.77 0.78 0.88 0.92 0.86 0.87 0.88 0.92 1.02
0.49 0.65 0.55 0.48 0.33 0.36 0.46 0.46 0.48 0.54 0.56 0.57 0.43 0.42 0.36 0.37 0.36 0.35 0.31 0.28 0.25 0.24 0.25 0.27 0.28 0.30 0.32 0.36 0.42 0.49 0.56 0.61 0.69 0.71 0.74 0.73 0.73 0.78 0.87 0.84 0.81 0.83 0.87 0.96
0.40 0.53 0.67 0.53 0.33 0.44 0.58 0.49 0.50 0.55 0.56 0.56 0.60 0.51 0.35 0.33 0.33 0.30 0.28 0.24 0.21 0.19 0.18 0.19 0.19 0.20 0.21 0.26 0.30 0.36 0.42 0.48 0.56 0.64 0.69 0.72 0.75 0.79 0.85 0.86 0.84 0.89 0.96 1.02
0.36 0.50 0.79 0.62 0.42 0.55 0.50 0.35 0.40 0.47 0.49 0.47 0.47 0.40 0.34 0.34 0.33 0.30 0.27 0.24 0.20 0.18 0.19 0.20 0.20 0.20 0.19 0.21 0.22 0.25 0.32 0.40 0.46 0.52 0.60 0.64 0.70 0.73 0.75 0.82 0.86 0.91 0.96 1.02
0.26 0.55 0.90 0.74 0.51 0.37 0.30 0.29 0.40 0.49 0.53 0.46 0.42 0.35 0.33 0.29 0.26 0.27 0.26 0.24 0.22 0.19 0.19 0.19 0.19 0.19 0.19 0.19 0.19 0.21 0.28 0.36 0.41 0.48 0.56 0.61 0.70 0.73 0.76 0.83 0.85 0.88 0.94 0.98
0.24 0.46 0.90 0.79 0.64 0.44 0.36 0.23 0.24 0.38 0.60 0.39 0.34 0.34 0.33 0.29 0.35 0.34 0.28 0.26 0.24 0.19 0.17 0.18 0.18 0.18 0.20 0.22 0.24 0.26 0.30 0.37 0.41 0.47 0.56 0.59 0.68 0.79 0.82 0.84 0.83 0.81 0.86 0.92
0.38 0.57 0.74 0.64 0.59 0.36 0.28 0.18 0.17 0.50 0.71 0.38 0.31 0.31 0.30 0.32 0.38 0.33 0.27 0.24 0.21 0.20 0.19 0.18 0.19 0.21 0.25 0.29 0.32 0.34 0.38 0.43 0.45 0.48 0.54 0.55 0.59 0.66 0.70 0.72 0.73 0.75 0.75 0.76
0.35 0.41 0.40 0.41 0.56 0.46 0.27 0.22 0.41 0.55 0.36 0.28 0.26 0.26 0.27 0.30 0.28 0.27 0.26 0.24 0.21 0.23 0.21 0.20 0.21 0.23 0.24 0.31 0.38 0.39 0.39 0.41 0.42 0.44 0.50 0.52 0.54 0.57 0.59 0.62 0.65 0.67 0.66 0.65
0.31 0.41 0.45 0.45 0.53 0.47 0.36 0.37 0.39 0.31 0.27 0.24 0.25 0.25 0.23 0.26 0.26 0.25 0.25 0.21 0.19 0.22 0.22 0.20 0.20 0.21 0.22 0.25 0.32 0.39 0.40 0.39 0.40 0.43 0.48 0.50 0.50 0.51 0.55 0.56 0.58 0.57 0.55 0.55
0.25 0.21 0.28 0.34 0.34 0.30 0.29 0.27 0.26 0.26 0.26 0.23 0.21 0.19 0.18 0.21 0.22 0.22 0.21 0.20 0.18 0.18 0.19 0.19 0.18 0.19 0.23 0.24 0.25 0.30 0.33 0.35 0.38 0.39 0.41 0.45 0.47 0.45 0.45 0.47 0.50 0.53 0.53 0.53
0.25 0.21 0.23 0.31 0.28 0.24 0.25 0.24 0.23 0.21 0.17 0.14 0.12 0.12 0.14 0.17 0.18 0.19 0.20 0.21 0.20 0.19 0.18 0.19 0.19 0.19 0.21 0.21 0.22 0.23 0.24 0.27 0.32 0.35 0.37 0.37 0.39 0.40 0.40 0.40 0.43 0.48 0.50 0.56
0.27 0.28 0.33 0.38 0.28 0.29 0.28 0.20 0.15 0.13 0.12 0.11 0.10 0.09 0.10 0.13 0.14 0.13 0.13 0.16 0.20 0.19 0.18 0.18 0.18 0.18 0.20 0.21 0.24 0.24 0.24 0.26 0.28 0.31 0.33 0.34 0.35 0.36 0.37 0.38 0.36 0.40 0.44 0.50

GEFSCGP_prec_meanprecacc_246.txt.gz
Total_Precipitation_Accumulation
1.83 2.06 1.67 0.99 0.79 0.71 0.59 0.52 0.45 0.45 0.44 0.53 0.55 0.63 0.70 0.69 0.66 0.71 0.81 0.88 0.90 0.91 1.01 1.29 1.71 1.98 2.39 2.82 2.97 3.00 2.93 3.10 3.40 3.35 3.12 2.84 2.54 2.32 2.10 1.96 1.84 1.70 1.58 1.48
1.77 1.49 0.91 0.69 0.74 0.77 0.73 0.66 0.53 0.49 0.46 0.56 0.57 0.60 0.60 0.63 0.62 0.64 0.72 0.79 0.81 0.78 0.91 1.19 1.48 1.79 2.02 2.59 2.91 2.94 3.01 3.14 3.32 3.27 3.16 3.06 2.91 2.67 2.44 2.26 1.98 1.79 1.66 1.54
1.31 0.92 0.74 0.91 0.96 0.89 0.80 0.69 0.54 0.55 0.62 0.60 0.57 0.62 0.52 0.51 0.52 0.54 0.66 0.73 0.73 0.73 0.87 1.07 1.26 1.52 1.68 2.06 2.51 2.70 2.74 2.94 3.11 3.31 3.60 3.59 3.41 3.01 2.54 2.24 2.08 1.92 1.88 1.77
1.10 0.76 0.88 1.13 1.10 0.89 0.81 0.54 0.54 0.57 0.73 0.75 0.59 0.76 0.52 0.45 0.49 0.50 0.62 0.70 0.70 0.70 0.79 0.97 1.11 1.23 1.42 1.66 2.05 2.43 2.62 2.73 2.79 2.92 3.24 3.39 3.25 2.85 2.46 2.21 2.17 2.18 2.09 2.06
1.08 0.79 0.95 1.21 1.00 0.84 0.74 0.51 0.61 0.68 0.79 0.79 0.54 0.66 0.54 0.44 0.51 0.53 0.60 0.68 0.71 0.74 0.83 0.95 1.02 1.04 1.16 1.39 1.77 2.11 2.37 2.58 2.61 2.57 2.73 3.00 3.14 3.04 2.84 2.57 2.39 2.29 2.21 2.10
0.80 0.78 1.00 1.06 0.89 0.87 0.80 0.83 0.96 1.05 1.30 1.27 0.52 0.53 0.50 0.48 0.57 0.56 0.57 0.68 0.75 0.82 0.88 0.93 0.97 0.99 1.03 1.18 1.43 1.73 2.01 2.33 2.51 2.47 2.55 2.66 2.74 2.88 2.84 2.58 2.49 2.38 2.36 2.25
1.07 1.04 1.00 1.06 1.29 1.24 1.26 1.71 2.15 2.10 1.86 1.05 0.31 0.37 0.52 0.46 0.50 0.53 0.57 0.65 0.71 0.73 0.77 0.79 0.80 0.85 0.97 1.08 1.21 1.43 1.56 1.84 2.14 2.27 2.33 2.39 2.46 2.55 2.65 2.60 2.50 2.44 2.30 2.20
1.20 1.25 0.96 1.03 1.38 1.45 1.28 1.52 1.67 1.45 0.95 0.48 0.26 0.41 0.50 0.41 0.42 0.47 0.51 0.59 0.70 0.76 0.78 0.79 0.76 0.82 0.97 1.03 1.11 1.26 1.38 1.51 1.76 1.98 2.02 2.07 2.22 2.29 2.28 2.36 2.32 2.28 2.21 2.14
0.96 0.99 0.76 0.81 0.98 1.12 1.22 1.14 0.91 1.15 0.83 0.57 0.39 0.35 0.38 0.35 0.38 0.43 0.44 0.50 0.62 0.69 0.70 0.77 0.80 0.85 0.92 0.97 1.03 1.14 1.24 1.28 1.40 1.65 1.78 1.86 1.91 1.93 1.87 1.88 1.90 1.94 1.97 1.99
0.91 1.00 0.81 0.84 1.08 1.16 1.08 0.95 1.05 1.42 1.20 0.83 0.45 0.35 0.48 0.45 0.44 0.44 0.44 0.47 0.57 0.65 0.71 0.77 0.82 0.80 0.81 0.86 0.93 1.04 1.08 1.09 1.14 1.28 1.41 1.58 1.66 1.65 1.67 1.65 1.60 1.59 1.58 1.63
0.78 1.04 1.06 1.02 1.16 1.01 0.89 1.03 1.14 1.16 0.95 0.97 0.65 0.48 0.48 0.48 0.48 0.48 0.53 0.54 0.59 0.64 0.74 0.81 0.87 0.84 0.82 0.85 0.90 0.96 0.95 0.97 1.01 1.08 1.14 1.23 1.36 1.44 1.47 1.45 1.34 1.35 1.32 1.30
0.65 0.94 1.06 0.84 0.65 0.60 0.70 0.76 0.93 1.26 0.97 0.75 0.70 0.50 0.36 0.40 0.44 0.48 0.57 0.58 0.58 0.60 0.67 0.75 0.84 0.83 0.84 0.88 0.91 0.94 0.91 0.92 0.93 0.99 1.01 1.04 1.12 1.26 1.31 1.33 1.25 1.17 1.18 1.12
0.81 1.04 1.14 0.97 0.83 0.74 0.74 0.61 0.72 1.02 1.18 0.88 0.80 0.56 0.35 0.36 0.42 0.48 0.55 0.57 0.57 0.57 0.60 0.64 0.70 0.76 0.80 0.85 0.88 0.93 0.91 0.86 0.85 0.87 0.88 0.94 1.03 1.11 1.14 1.14 1.17 1.10 1.11 1.03
1.01 0.99 0.96 0.94 0.77 0.74 0.70 0.55 0.65 1.18 1.42 0.84 0.59 0.50 0.41 0.42 0.45 0.48 0.51 0.52 0.52 0.51 0.49 0.52 0.57 0.64 0.69 0.74 0.79 0.82 0.84 0.83 0.84 0.84 0.81 0.84 0.91 1.05 1.08 1.02 1.04 1.04 1.08 1.07
0.80 0.87 0.62 0.52 0.38 0.44 0.51 0.53 0.62 0.88 0.82 0.79 0.50 0.43 0.46 0.45 0.47 0.49 0.45 0.42 0.39 0.38 0.38 0.42 0.46 0.49 0.55 0.59 0.64 0.69 0.73 0.76 0.80 0.82 0.81 0.80 0.82 0.92 0.97 0.91 0.91 0.93 0.96 1.06
0.50 0.68 0.57 0.50 0.34 0.38 0.48 0.47 0.49 0.56 0.59 0.61 0.46 0.46 0.40 0.40 0.40 0.39 0.36 0.32 0.28 0.28 0.29 0.31 0.34 0.36 0.38 0.42 0.49 0.55 0.61 0.67 0.74 0.76 0.79 0.78 0.78 0.83 0.92 0.89 0.87 0.88 0.92 1.00
0.42 0.55 0.70 0.55 0.36 0.47 0.60 0.52 0.53 0.57 0.59 0.60 0.65 0.55 0.38 0.36 0.36 0.35 0.32 0.27 0.25 0.22 0.22 0.24 0.26 0.27 0.28 0.31 0.36 0.42 0.47 0.53 0.61 0.69 0.74 0.78 0.82 0.86 0.91 0.91 0.89 0.94 1.01 1.07
0.39 0.52 0.81 0.64 0.45 0.60 0.54 0.38 0.43 0.50 0.53 0.51 0.52 0.45 0.38 0.38 0.37 0.34 0.31 0.27 0.23 0.21 0.23 0.25 0.26 0.26 0.26 0.26 0.26 0.29 0.36 0.44 0.50 0.57 0.66 0.70 0.77 0.79 0.82 0.88 0.91 0.95 1.00 1.07
0.27 0.57 0.94 0.77 0.54 0.40 0.32 0.30 0.44 0.53 0.56 0.50 0.46 0.40 0.37 0.33 0.29 0.31 0.30 0.28 0.26 0.23 0.24 0.24 0.24 0.24 0.24 0.23 0.22 0.24 0.31 0.39 0.44 0.53 0.62 0.68 0.77 0.81 0.83 0.90 0.91 0.93 0.99 1.02
0.25 0.48 0.94 0.82 0.67 0.46 0.39 0.25 0.26 0.40 0.62 0.41 0.39 0.39 0.38 0.32 0.39 0.39 0.33 0.30 0.28 0.24 0.23 0.23 0.22 0.22 0.24 0.26 0.28 0.29 0.33 0.40 0.44 0.51 0.61 0.65 0.75 0.86 0.90 0.92 0.90 0.88 0.91 0.97
0.41 0.60 0.77 0.66 0.62 0.39 0.31 0.20 0.18 0.54 0.75 0.42 0.38 0.38 0.36 0.38 0.46 0.41 0.34 0.30 0.27 0.26 0.25 0.25 0.24 0.25 0.30 0.35 0.36 0.37 0.41 0.47 0.49 0.52 0.58 0.59 0.64 0.72 0.77 0.80 0.81 0.82 0.81 0.82
0.38 0.45 0.43 0.43 0.59 0.49 0.30 0.24 0.45 0.61 0.41 0.33 0.31 0.33 0.34 0.37 0.35 0.34 0.33 0.31 0.27 0.29 0.28 0.25 0.25 0.27 0.29 0.36 0.42 0.42 0.42 0.44 0.45 0.47 0.53 0.56 0.58 0.62 0.65 0.67 0.71 0.73 0.72 0.71
0.34 0.44 0.49 0.49 0.57 0.51 0.40 0.42 0.44 0.36 0.31 0.28 0.29 0.30 0.28 0.31 0.31 0.31 0.32 0.28 0.25 0.27 0.28 0.25 0.24 0.24 0.25 0.29 0.36 0.43 0.43 0.43 0.43 0.46 0.51 0.54 0.53 0.54 0.59 0.61 0.63 0.62 0.60 0.59
0.27 0.22 0.30 0.37 0.37 0.33 0.32 0.30 0.29 0.29 0.29 0.26 0.24 0.22 0.21 0.25 0.26 0.26 0.26 0.25 0.23 0.23 0.24 0.24 0.22 0.23 0.26 0.27 0.29 0.34 0.37 0.39 0.42 0.44 0.45 0.48 0.51 0.49 0.49 0.52 0.55 0.56 0.56 0.56
0.27 0.22 0.25 0.33 0.30 0.26 0.26 0.26 0.26 0.23 0.18 0.15 0.14 0.14 0.16 0.20 0.22 0.23 0.24 0.25 0.24 0.24 0.23 0.24 0.24 0.24 0.26 0.25 0.26 0.26 0.28 0.31 0.36 0.40 0.41 0.42 0.43 0.45 0.45 0.44 0.47 0.52 0.53 0.59
0.30 0.31 0.36 0.40 0.30 0.32 0.31 0.22 0.17 0.15 0.13 0.12 0.11 0.10 0.12 0.15 0.16 0.15 0.16 0.19 0.22 0.23 0.22 0.22 0.21 0.22 0.23 0.25 0.27 0.28 0.27 0.29 0.32 0.35 0.37 0.38 0.39 0.40 0.41 0.41 0.40 0.43 0.47 0.53

GEFSCGP_prec_meanprecacc_252.txt.gz
Total_Precipitation_Accumulation
1.84 2.08 1.68 1.00 0.81 0.75 0.62 0.54 0.47 0.46 0.45 0.53 0.55 0.63 0.70 0.69 0.66 0.71 0.81 0.88 0.91 0.91 1.01 1.29 1.71 1.98 2.39 2.82 2.97 3.00 2.94 3.11 3.41 3.35 3.13 2.85 2.56 2.33 2.11 1.97 1.84 1.71 1.59 1.49
1.78 1.51 0.92 0.70 0.76 0.80 0.77 0.70 0.55 0.50 0.47 0.57 0.57 0.61 0.61 0.63 0.62 0.64 0.72 0.79 0.81 0.79 0.91 1.20 1.48 1.79 2.02 2.59 2.91 2.94 3.01 3.14 3.33 3.27 3.16 3.07 2.92 2.69 2.45 2.28 1.99 1.80 1.67 1.55
1.32 0.93 0.75 0.92 0.98 0.93 0.84 0.72 0.57 0.57 0.64 0.61 0.58 0.63 0.53 0.52 0.53 0.54 0.66 0.73 0.73 0.73 0.87 1.07 1.26 1.52 1.68 2.06 2.51 2.70 2.74 2.94 3.11 3.32 3.61 3.60 3.42 3.03 2.55 2.25 2.09 1.93 1.89 1.79
1.11 0.77 0.89 1.14 1.11 0.92 0.85 0.56 0.56 0.60 0.76 0.77 0.60 0.78 0.53 0.46 0.49 0.51 0.62 0.70 0.71 0.70 0.80 0.97 1.11 1.23 1.42 1.66 2.05 2.43 2.62 2.73 2.79 2.92 3.24 3.39 3.25 2.86 2.47 2.21 2.18 2.19 2.10 2.07
1.09 0.80 0.97 1.22 1.00 0.85 0.77 0.52 0.62 0.71 0.82 0.83 0.56 0.68 0.55 0.44 0.51 0.53 0.60 0.68 0.71 0.74 0.84 0.95 1.02 1.04 1.16 1.40 1.77 2.11 2.37 2.58 2.61 2.57 2.73 3.00 3.15 3.04 2.85 2.58 2.40 2.30 2.22 2.11
0.81 0.79 1.02 1.09 0.90 0.88 0.83 0.85 0.97 1.08 1.36 1.34 0.54 0.54 0.52 0.49 0.58 0.57 0.57 0.68 0.75 0.82 0.88 0.93 0.97 0.99 1.04 1.18 1.44 1.73 2.01 2.33 2.51 2.47 2.55 2.66 2.74 2.90 2.85 2.59 2.50 2.39 2.37 2.25
1.08 1.05 1.01 1.08 1.32 1.26 1.28 1.74 2.21 2.18 1.95 1.11 0.32 0.39 0.55 0.47 0.51 0.54 0.57 0.65 0.71 0.73 0.77 0.79 0.80 0.85 0.97 1.08 1.21 1.44 1.57 1.84 2.14 2.27 2.33 2.39 2.47 2.56 2.67 2.62 2.51 2.46 2.32 2.21
1.21 1.26 0.96 1.04 1.42 1.49 1.31 1.55 1.72 1.51 0.98 0.50 0.28 0.44 0.54 0.43 0.43 0.47 0.52 0.59 0.70 0.76 0.78 0.79 0.77 0.82 0.97 1.03 1.11 1.26 1.38 1.51 1.76 1.98 2.02 2.07 2.22 2.30 2.30 2.38 2.34 2.30 2.23 2.15
0.98 1.00 0.76 0.82 1.00 1.15 1.26 1.18 0.93 1.19 0.86 0.60 0.43 0.39 0.41 0.37 0.40 0.43 0.45 0.51 0.64 0.72 0.73 0.79 0.82 0.86 0.92 0.97 1.03 1.14 1.25 1.28 1.41 1.66 1.79 1.86 1.92 1.94 1.88 1.91 1.93 1.96 2.00 2.01
0.93 1.01 0.82 0.85 1.10 1.19 1.12 0.99 1.07 1.45 1.24 0.87 0.48 0.38 0.53 0.48 0.46 0.45 0.46 0.49 0.58 0.67 0.73 0.79 0.83 0.81 0.82 0.87 0.94 1.05 1.09 1.10 1.15 1.29 1.42 1.59 1.67 1.66 1.68 1.67 1.63 1.62 1.61 1.65
0.80 1.06 1.07 1.04 1.19 1.05 0.93 1.08 1.19 1.19 0.98 1.00 0.69 0.54 0.53 0.51 0.50 0.51 0.55 0.56 0.61 0.66 0.76 0.83 0.88 0.85 0.83 0.87 0.92 0.99 0.98 0.99 1.02 1.09 1.16 1.25 1.38 1.45 1.49 1.47 1.37 1.37 1.34 1.33
0.67 0.96 1.08 0.86 0.67 0.63 0.74 0.80 0.98 1.32 1.01 0.78 0.74 0.58 0.41 0.43 0.46 0.50 0.59 0.59 0.59 0.62 0.69 0.77 0.85 0.84 0.86 0.90 0.94 0.98 0.95 0.96 0.96 1.01 1.02 1.06 1.15 1.28 1.33 1.36 1.28 1.19 1.21 1.16
0.85 1.08 1.17 1.00 0.86 0.76 0.76 0.65 0.76 1.05 1.22 0.91 0.84 0.63 0.41 0.40 0.43 0.49 0.57 0.59 0.59 0.59 0.62 0.66 0.72 0.78 0.82 0.87 0.91 0.98 0.96 0.90 0.88 0.90 0.90 0.96 1.06 1.14 1.18 1.18 1.21 1.14 1.14 1.07
1.05 1.02 0.99 0.98 0.82 0.77 0.72 0.58 0.68 1.21 1.47 0.87 0.63 0.56 0.47 0.48 0.50 0.51 0.53 0.55 0.54 0.54 0.51 0.55 0.61 0.67 0.72 0.77 0.83 0.87 0.89 0.88 0.88 0.86 0.83 0.86 0.93 1.07 1.11 1.05 1.07 1.07 1.11 1.11
0.81 0.89 0.64 0.54 0.40 0.45 0.52 0.55 0.65 0.92 0.86 0.83 0.54 0.47 0.52 0.52 0.54 0.54 0.49 0.46 0.42 0.41 0.40 0.45 0.50 0.53 0.59 0.64 0.69 0.74 0.78 0.80 0.84 0.85 0.83 0.83 0.84 0.94 1.00 0.94 0.94 0.96 1.00 1.10
0.52 0.70 0.58 0.52 0.36 0.39 0.49 0.49 0.51 0.59 0.63 0.64 0.49 0.50 0.46 0.46 0.43 0.43 0.40 0.35 0.32 0.32 0.33 0.34 0.37 0.40 0.42 0.47 0.55 0.61 0.66 0.71 0.78 0.79 0.82 0.81 0.80 0.86 0.95 0.92 0.90 0.92 0.96 1.05
0.44 0.56 0.71 0.58 0.38 0.48 0.63 0.56 0.56 0.60 0.62 0.64 0.71 0.61 0.42 0.40 0.40 0.38 0.36 0.31 0.28 0.26 0.26 0.28 0.29 0.31 0.32 0.36 0.42 0.49 0.53 0.58 0.65 0.73 0.77 0.80 0.84 0.88 0.94 0.94 0.94 0.98 1.04 1.11
0.40 0.53 0.82 0.66 0.46 0.62 0.58 0.41 0.46 0.53 0.56 0.54 0.57 0.50 0.42 0.42 0.41 0.37 0.35 0.32 0.27 0.24 0.26 0.29 0.30 0.31 0.31 0.31 0.32 0.37 0.42 0.48 0.54 0.62 0.71 0.75 0.80 0.82 0.85 0.91 0.94 1.00 1.04 1.11
0.28 0.58 0.95 0.78 0.55 0.41 0.33 0.32 0.48 0.56 0.61 0.53 0.49 0.44 0.42 0.36 0.31 0.33 0.33 0.32 0.31 0.28 0.28 0.29 0.29 0.30 0.30 0.28 0.27 0.32 0.39 0.44 0.48 0.58 0.70 0.75 0.81 0.84 0.87 0.94 0.95 0.97 1.04 1.07
0.26 0.49 0.95 0.83 0.68 0.48 0.41 0.27 0.28 0.42 0.65 0.43 0.41 0.43 0.42 0.36 0.42 0.44 0.38 0.34 0.32 0.28 0.27 0.27 0.27 0.27 0.29 0.32 0.33 0.36 0.41 0.46 0.50 0.57 0.67 0.73 0.81 0.90 0.95 0.97 0.96 0.92 0.96 1.03
0.42 0.61 0.78 0.67 0.63 0.40 0.33 0.21 0.19 0.56 0.79 0.45 0.42 0.43 0.41 0.44 0.52 0.47 0.38 0.35 0.32 0.31 0.30 0.29 0.28 0.30 0.36 0.41 0.42 0.43 0.47 0.54 0.57 0.60 0.65 0.68 0.72 0.78 0.83 0.85 0.87 0.88 0.87 0.87
0.39 0.46 0.45 0.44 0.61 0.51 0.31 0.25 0.48 0.66 0.44 0.36 0.34 0.36 0.38 0.41 0.39 0.39 0.37 0.35 0.32 0.34 0.33 0.30 0.30 0.33 0.34 0.41 0.47 0.47 0.47 0.50 0.52 0.55 0.62 0.66 0.67 0.69 0.71 0.74 0.78 0.80 0.78 0.76
0.36 0.47 0.51 0.51 0.61 0.54 0.42 0.45 0.48 0.39 0.33 0.31 0.32 0.33 0.31 0.34 0.34 0.35 0.35 0.32 0.30 0.32 0.33 0.30 0.29 0.30 0.30 0.34 0.40 0.47 0.48 0.48 0.49 0.52 0.58 0.61 0.61 0.62 0.66 0.67 0.69 0.68 0.66 0.65
0.28 0.22 0.31 0.38 0.39 0.35 0.33 0.31 0.31 0.31 0.31 0.28 0.26 0.24 0.23 0.26 0.28 0.28 0.29 0.28 0.27 0.27 0.28 0.28 0.26 0.27 0.31 0.33 0.34 0.39 0.42 0.44 0.48 0.50 0.51 0.54 0.57 0.55 0.55 0.58 0.62 0.64 0.63 0.62
0.28 0.22 0.25 0.33 0.31 0.27 0.27 0.27 0.27 0.25 0.20 0.17 0.15 0.15 0.18 0.22 0.24 0.25 0.26 0.27 0.27 0.27 0.27 0.28 0.28 0.28 0.30 0.30 0.31 0.31 0.33 0.36 0.41 0.45 0.46 0.46 0.48 0.50 0.50 0.50 0.54 0.59 0.60 0.65
0.31 0.32 0.37 0.41 0.32 0.33 0.32 0.24 0.18 0.16 0.15 0.14 0.12 0.11 0.13 0.16 0.18 0.17 0.18 0.21 0.25 0.25 0.25 0.25 0.25 0.25 0.27 0.28 0.31 0.32 0.31 0.33 0.36 0.39 0.41 0.43 0.44 0.45 0.47 0.48 0.47 0.51 0.54 0.60